Location: Shepherdstown, WV
(39.4326°N, 77.8042°W)
Time: 23:34:34
(UTC-04:00)

S-56A Canister/Altair - Pass Details

Date: 01 August 2021
Orbit: 632 x 2500 km, 38.9° (Epoch: 27 September)

Event Time Altitude Azimuth Distance (km) Brightness Sun altitude
Rises 23:50:59 0° 285° (WNW) 5,991 12.6 -29.1°
Reaches altitude 10° 23:57:01 10° 269° (W) 4,725 11.7 -29.6°
Maximum altitude 00:04:08 17° 235° (SW) 3,743 10.8 -30.1°
Enters shadow 00:06:06 16° 223° (SW) 3,665 10.7 -30.2°
